^^
Saratoga-Weather Station Historical Data
 
Daily Summary for February 19, 2017 Units:  English    Metric   Both
« Previous Day
Next Day »
Daily Weekly Monthly Yearly Custom
  Current: High: Low: Average:
Temperature: 48.6 °F 49.1 °F 41.1 °F 44.1 °F
Dew Point: 34.5 °F 36.7 °F 34.3 °F 35.8 °F
Humidity: 58% 81% 57% 73%
Wind Speed: 5.0mph 6.0mph 0.0mph 1.7mph
Wind Gust: 9.0mph 10.0mph - -
WindWNW - - West
Pressure: 29.82 in 29.82 in 29.64 in -
Precipitation: 0.00 in      
Historical Graphs
 
 
Tabular Data for February 19, 2017
Time Temperature Dew Point Pressure Wind Wind Speed Wind Gust Humidity Rainfall Rate (Hourly) solar
00:02 46.8 °F 36.4 °F 29.64 in WNW 1.0 mph 1.0 mph 67% 0.00 in 0 W/m2
00:08 46.7 °F 36.3 °F 29.64 in West 1.0 mph 5.0 mph 67% 0.00 in 0 W/m2
00:14 46.5 °F 36.5 °F 29.64 in West 1.0 mph 1.0 mph 68% 0.00 in 0 W/m2
00:20 46.3 °F 36.3 °F 29.65 in West 1.0 mph 1.0 mph 68% 0.00 in 0 W/m2
00:32 46.0 °F 36.4 °F 29.65 in WNW 1.0 mph 1.0 mph 69% 0.00 in 0 W/m2
00:38 45.9 °F 36.7 °F 29.66 in WNW 1.0 mph 2.0 mph 70% 0.00 in 0 W/m2
00:44 45.8 °F 36.6 °F 29.66 in SW 1.0 mph 2.0 mph 70% 0.00 in 0 W/m2
00:50 45.6 °F 36.4 °F 29.66 in WSW 1.0 mph 1.0 mph 70% 0.00 in 0 W/m2
00:56 45.3 °F 36.4 °F 29.66 in WSW 1.0 mph 2.0 mph 71% 0.00 in 0 W/m2
01:02 45.2 °F 36.4 °F 29.66 in WSW 1.0 mph 2.0 mph 71% 0.00 in 0 W/m2
01:08 45.1 °F 36.3 °F 29.66 in WSW 1.0 mph 2.0 mph 71% 0.00 in 0 W/m2
01:14 44.8 °F 36.3 °F 29.66 in Calm   3.0 mph 72% 0.00 in 0 W/m2
01:20 44.5 °F 36.0 °F 29.66 in West 1.0 mph 1.0 mph 72% 0.00 in 0 W/m2
01:26 44.4 °F 36.3 °F 29.66 in West 1.0 mph 1.0 mph 73% 0.00 in 0 W/m2
01:32 44.2 °F 36.1 °F 29.66 in West 1.0 mph 2.0 mph 73% 0.00 in 0 W/m2
01:38 44.1 °F 36.0 °F 29.66 in West 1.0 mph 2.0 mph 73% 0.00 in 0 W/m2
01:44 44.2 °F 36.1 °F 29.66 in WSW 1.0 mph 4.0 mph 73% 0.00 in 0 W/m2
01:50 44.1 °F 36.3 °F 29.66 in WSW 1.0 mph 2.0 mph 74% 0.00 in 0 W/m2
01:56 44.1 °F 36.3 °F 29.66 in WSW 2.0 mph 2.0 mph 74% 0.00 in 0 W/m2
02:02 44.1 °F 36.3 °F 29.66 in WSW 2.0 mph 2.0 mph 74% 0.00 in 0 W/m2
02:08 44.0 °F 36.2 °F 29.66 in West 1.0 mph 2.0 mph 74% 0.00 in 0 W/m2
02:14 43.8 °F 36.0 °F 29.66 in Calm   1.0 mph 74% 0.00 in 0 W/m2
02:20 43.6 °F 36.2 °F 29.67 in Calm     75% 0.00 in 0 W/m2
02:32 43.6 °F 36.2 °F 29.67 in Calm     75% 0.00 in 0 W/m2
02:38 43.5 °F 36.1 °F 29.67 in Calm     75% 0.00 in 0 W/m2
02:44 43.3 °F 36.2 °F 29.67 in Calm     76% 0.00 in 0 W/m2
02:50 43.3 °F 36.2 °F 29.67 in Calm     76% 0.00 in 0 W/m2
02:56 43.1 °F 36.0 °F 29.67 in Calm   2.0 mph 76% 0.00 in 0 W/m2
03:03 43.0 °F 36.0 °F 29.67 in Calm     76% 0.00 in 0 W/m2
03:08 43.0 °F 36.0 °F 29.67 in Calm     76% 0.00 in 0 W/m2
03:14 43.1 °F 36.4 °F 29.68 in WSW 1.0 mph 1.0 mph 77% 0.00 in 0 W/m2
03:20 43.1 °F 36.0 °F 29.68 in WSW 1.0 mph 1.0 mph 76% 0.00 in 0 W/m2
03:26 43.0 °F 36.3 °F 29.68 in Calm   3.0 mph 77% 0.00 in 0 W/m2
03:32 42.9 °F 36.2 °F 29.68 in Calm   1.0 mph 77% 0.00 in 0 W/m2
03:38 42.8 °F 36.1 °F 29.68 in Calm   2.0 mph 77% 0.00 in 0 W/m2
03:44 42.7 °F 36.0 °F 29.69 in Calm     77% 0.00 in 0 W/m2
03:50 42.4 °F 36.0 °F 29.69 in Calm     78% 0.00 in 0 W/m2
03:56 42.4 °F 36.0 °F 29.69 in Calm   1.0 mph 78% 0.00 in 0 W/m2
04:02 42.4 °F 36.0 °F 29.69 in Calm     78% 0.00 in 0 W/m2
04:08 42.3 °F 35.9 °F 29.69 in Calm     78% 0.00 in 0 W/m2
04:14 42.2 °F 35.8 °F 29.69 in Calm     78% 0.00 in 0 W/m2
04:20 42.0 °F 36.0 °F 29.70 in Calm   1.0 mph 79% 0.00 in 0 W/m2
04:26 42.0 °F 36.0 °F 29.70 in Calm   1.0 mph 79% 0.00 in 0 W/m2
04:32 41.8 °F 35.8 °F 29.70 in Calm     79% 0.00 in 0 W/m2
04:38 41.6 °F 35.6 °F 29.70 in Calm   2.0 mph 79% 0.00 in 0 W/m2
04:44 41.5 °F 35.8 °F 29.70 in Calm   1.0 mph 80% 0.00 in 0 W/m2
04:50 41.4 °F 35.7 °F 29.70 in Calm     80% 0.00 in 0 W/m2
04:56 41.2 °F 35.5 °F 29.70 in Calm     80% 0.00 in 0 W/m2
05:02 41.1 °F 35.7 °F 29.70 in Calm     81% 0.00 in 0 W/m2
05:08 41.2 °F 35.8 °F 29.70 in WSW 1.0 mph 1.0 mph 81% 0.00 in 0 W/m2
05:14 41.3 °F 35.6 °F 29.70 in WSW 1.0 mph 1.0 mph 80% 0.00 in 0 W/m2
05:20 41.3 °F 35.6 °F 29.70 in Calm     80% 0.00 in 0 W/m2
05:26 41.2 °F 35.5 °F 29.70 in Calm     80% 0.00 in 0 W/m2
05:32 41.2 °F 35.5 °F 29.70 in Calm   1.0 mph 80% 0.00 in 0 W/m2
05:38 41.3 °F 35.6 °F 29.71 in Calm   1.0 mph 80% 0.00 in 0 W/m2
05:44 41.3 °F 35.6 °F 29.71 in West 1.0 mph 3.0 mph 80% 0.00 in 0 W/m2
05:50 41.5 °F 35.8 °F 29.71 in WSW 1.0 mph 2.0 mph 80% 0.00 in 0 W/m2
05:56 41.6 °F 35.9 °F 29.72 in WSW 1.0 mph 2.0 mph 80% 0.00 in 0 W/m2
06:02 41.8 °F 36.1 °F 29.72 in West 1.0 mph 1.0 mph 80% 0.00 in 0 W/m2
06:08 42.1 °F 36.1 °F 29.72 in SW 2.0 mph 2.0 mph 79% 0.00 in 0 W/m2
06:14 42.2 °F 36.2 °F 29.71 in WSW 2.0 mph 3.0 mph 79% 0.00 in 0 W/m2
06:20 42.2 °F 35.8 °F 29.71 in West 2.0 mph 2.0 mph 78% 0.00 in 0 W/m2
06:26 42.4 °F 36.0 °F 29.71 in SW 2.0 mph 6.0 mph 78% 0.00 in 0 W/m2
06:32 42.6 °F 36.2 °F 29.72 in West 2.0 mph 2.0 mph 78% 0.00 in 0 W/m2
06:38 42.6 °F 36.2 °F 29.73 in WSW 2.0 mph 2.0 mph 78% 0.00 in 0 W/m2
06:44 42.6 °F 36.2 °F 29.73 in SW 1.0 mph 3.0 mph 78% 0.00 in 0 W/m2
06:50 42.6 °F 36.2 °F 29.73 in SW 2.0 mph 2.0 mph 78% 0.00 in 0 W/m2
06:56 42.6 °F 36.2 °F 29.73 in WNW 2.0 mph 5.0 mph 78% 0.00 in 0 W/m2
07:02 42.5 °F 35.8 °F 29.74 in WNW 2.0 mph 5.0 mph 77% 0.00 in 5 W/m2
07:08 42.6 °F 35.9 °F 29.74 in WNW 2.0 mph 5.0 mph 77% 0.00 in 9 W/m2
07:14 42.5 °F 35.8 °F 29.74 in WNW 2.0 mph 2.0 mph 77% 0.00 in 12 W/m2
07:20 42.4 °F 35.7 °F 29.75 in West 1.0 mph 3.0 mph 77% 0.00 in 18 W/m2
07:26 42.5 °F 35.8 °F 29.75 in NW 2.0 mph 5.0 mph 77% 0.00 in 21 W/m2
07:32 42.6 °F 35.9 °F 29.75 in WSW 2.0 mph 3.0 mph 77% 0.00 in 26 W/m2
07:38 42.6 °F 35.6 °F 29.76 in WSW 1.0 mph 7.0 mph 76% 0.00 in 33 W/m2
07:44 42.8 °F 35.8 °F 29.76 in West 2.0 mph 4.0 mph 76% 0.00 in 46 W/m2
07:50 43.0 °F 35.6 °F 29.76 in West 2.0 mph 2.0 mph 75% 0.00 in 63 W/m2
07:56 43.5 °F 35.8 °F 29.76 in WNW 3.0 mph 3.0 mph 74% 0.00 in 74 W/m2
08:02 43.9 °F 35.8 °F 29.76 in West 3.0 mph 3.0 mph 73% 0.00 in 116 W/m2
08:08 44.1 °F 36.0 °F 29.77 in West 3.0 mph 3.0 mph 73% 0.00 in 148 W/m2
08:14 44.2 °F 35.7 °F 29.77 in WSW 3.0 mph 3.0 mph 72% 0.00 in 156 W/m2
08:20 44.3 °F 35.8 °F 29.77 in West 2.0 mph 8.0 mph 72% 0.00 in 146 W/m2
08:26 44.2 °F 35.4 °F 29.77 in West 3.0 mph 8.0 mph 71% 0.00 in 109 W/m2
08:32 44.1 °F 35.6 °F 29.77 in NW 3.0 mph 5.0 mph 72% 0.00 in 105 W/m2
08:38 43.9 °F 35.5 °F 29.77 in WSW 3.0 mph 6.0 mph 72% 0.00 in 91 W/m2
08:50 43.6 °F 35.2 °F 29.78 in WSW 3.0 mph 3.0 mph 72% 0.00 in 67 W/m2
08:56 43.5 °F 35.1 °F 29.78 in West 2.0 mph 3.0 mph 72% 0.00 in 58 W/m2
09:02 43.3 °F 34.9 °F 29.78 in WNW 2.0 mph 3.0 mph 72% 0.00 in 44 W/m2
09:08 43.8 °F 35.4 °F 29.79 in WNW 2.0 mph 4.0 mph 72% 0.00 in 366 W/m2
09:14 44.7 °F 35.5 °F 29.79 in WNW 3.0 mph 8.0 mph 70% 0.00 in 376 W/m2
09:20 45.6 °F 35.6 °F 29.79 in WNW 3.0 mph 3.0 mph 68% 0.00 in 390 W/m2
09:26 45.7 °F 35.7 °F 29.79 in West 3.0 mph 5.0 mph 68% 0.00 in 404 W/m2
09:32 45.8 °F 35.5 °F 29.79 in WNW 3.0 mph 8.0 mph 67% 0.00 in 420 W/m2
09:38 46.0 °F 35.3 °F 29.79 in WNW 4.0 mph 9.0 mph 66% 0.00 in 432 W/m2
09:44 46.6 °F 35.5 °F 29.80 in WNW 4.0 mph 4.0 mph 65% 0.00 in 446 W/m2
09:50 46.5 °F 35.4 °F 29.80 in WSW 4.0 mph 4.0 mph 65% 0.00 in 457 W/m2
09:56 47.1 °F 35.5 °F 29.80 in WNW 4.0 mph 6.0 mph 64% 0.00 in 471 W/m2
10:02 47.8 °F 35.4 °F 29.81 in NW 4.0 mph 5.0 mph 62% 0.00 in 485 W/m2
10:08 47.6 °F 35.2 °F 29.81 in WNW 4.0 mph 7.0 mph 62% 0.00 in 497 W/m2
10:14 47.7 °F 35.3 °F 29.81 in West 5.0 mph 7.0 mph 62% 0.00 in 506 W/m2
10:20 47.7 °F 35.3 °F 29.81 in WNW 4.0 mph 4.0 mph 62% 0.00 in 517 W/m2
10:26 48.1 °F 35.3 °F 29.81 in West 4.0 mph 5.0 mph 61% 0.00 in 529 W/m2
10:32 48.9 °F 35.6 °F 29.81 in WNW 3.0 mph 4.0 mph 60% 0.00 in 538 W/m2
10:38 49.1 °F 34.9 °F 29.81 in WNW 3.0 mph 4.0 mph 58% 0.00 in 548 W/m2
10:44 48.8 °F 34.7 °F 29.81 in West 4.0 mph 4.0 mph 58% 0.00 in 559 W/m2
10:50 48.4 °F 34.7 °F 29.81 in NW 5.0 mph 5.0 mph 59% 0.00 in 566 W/m2
10:56 48.4 °F 34.7 °F 29.81 in West 6.0 mph 10.0 mph 59% 0.00 in 575 W/m2
11:02 48.7 °F 34.6 °F 29.82 in WNW 6.0 mph 8.0 mph 58% 0.00 in 584 W/m2
11:08 48.6 °F 34.5 °F 29.82 in WNW 5.0 mph 8.0 mph 58% 0.00 in 589 W/m2
11:14 49.0 °F 34.9 °F 29.82 in NW 4.0 mph 7.0 mph 58% 0.00 in 596 W/m2
11:20 48.9 °F 34.3 °F 29.82 in WNW 4.0 mph 6.0 mph 57% 0.00 in 603 W/m2
11:26 48.5 °F 34.4 °F 29.82 in West 5.0 mph 7.0 mph 58% 0.00 in 606 W/m2
11:32 48.6 °F 34.5 °F 29.82 in WNW 5.0 mph 9.0 mph 58% 0.00 in 610 W/m2
Country Meadow, Clay, NY, USA
Compliments of Weather Underground - 1.5 mb